(364) Isara
ephemeris date magn radius delta ra dec elong phase
Opposition28 May 202613.12.546 AU1.537 AU16h28m-15°31'173.8°2.5°
Today14 Jul 202614.12.527 AU1.770 AU15h52m-16°07'128.1°18.5°
(364) Isara - 2026-07-14
astro.vanbuitenen.nl


 
-1 year
-1 month
-1 day
Now
+1 day
+1 month
+1 year

The interactive orbit chart above shows the body's path through the solar system and its position at the given date. Green and blue lines are shown perpendicular to the ecliptic plane: Green if the path is above the ecliptic plane, blue if it is below. (Left-click and drag to rotate the view; Right-click and drag to move the view; Use scroll wheel to zoom in our out.)

The orbital elements of Isara are:

            e (Eccentricity)                : 0.1490474
            a (Semimajor axis)              : 2.2205576
            i (Inclination)                 : 6.00614
            Ω (Longitude of ascending node) : 105.50233
            ω (Argument of perihelion)      : 312.98737
            M (Mean anomaly)                : 195.10732
            Epoch                           : 2026 Jun 09

            L (Longitude of perihelion)     : 58.64703
            B (Latitude of perihelion)      : -4.38977
            P (Orbital period in years)     : 3.31            
        

The light curve chart below shows the estimated development of the minor planet's magnitude.


The all-sky chart below shows the path of the minor planet over the same period as the light curve. The current position is marked yellow.





The following chart shows the path of the minor planet in the next few days. The field of view is optimized for (~10x50) binoculars and finderscopes.




Ephemerides:
Date       Time       RA (2000)    DEC (2000)    delta   radius  elong  phase   PA    magn
2026-07-14 00:00 UT   15 52 22.5   -16 07 33     1.770    2.527  128.1   18.5   105   14.1 
2026-07-14 09:55 UT   15 52 17.8   -16 08 39     1.774    2.527  127.7   18.6   105   14.1 
2026-07-15 00:00 UT   15 52 11.7   -16 10 13     1.780    2.526  127.1   18.7   105   14.1 
2026-07-16 00:00 UT   15 52 02.7   -16 12 58     1.789    2.526  126.1   19.0   105   14.1 
2026-07-17 00:00 UT   15 51 55.5   -16 15 48     1.799    2.525  125.1   19.2   105   14.2 
2026-07-18 00:00 UT   15 51 50.0   -16 18 42     1.809    2.524  124.2   19.5   105   14.2 
2026-07-19 00:00 UT   15 51 46.3   -16 21 40     1.819    2.524  123.2   19.7   105   14.2 
2026-07-20 00:00 UT   15 51 44.4   -16 24 43     1.830    2.523  122.3   19.9   105   14.2 
2026-07-21 00:00 UT   15 51 44.1   -16 27 51     1.840    2.523  121.3   20.1   104   14.2 
2026-07-22 00:00 UT   15 51 45.7   -16 31 02     1.851    2.522  120.4   20.3   104   14.3 
2026-07-23 00:00 UT   15 51 48.9   -16 34 18     1.861    2.521  119.5   20.5   104   14.3 
2026-07-24 00:00 UT   15 51 53.8   -16 37 38     1.872    2.521  118.6   20.7   104   14.3 
2026-07-25 00:00 UT   15 52 00.4   -16 41 02     1.883    2.520  117.7   20.9   104   14.3 
2026-07-26 00:00 UT   15 52 08.7   -16 44 29     1.893    2.519  116.7   21.1   104   14.3 
2026-07-27 00:00 UT   15 52 18.7   -16 48 01     1.904    2.519  115.8   21.3   104   14.3 
2026-07-28 00:00 UT   15 52 30.2   -16 51 36     1.915    2.518  114.9   21.4   104   14.4 
2026-07-29 00:00 UT   15 52 43.5   -16 55 15     1.927    2.517  114.1   21.6   104   14.4 
2026-07-30 00:00 UT   15 52 58.3   -16 58 57     1.938    2.517  113.2   21.8   103   14.4 
2026-07-31 00:00 UT   15 53 14.7   -17 02 42     1.949    2.516  112.3   21.9   103   14.4 
2026-08-01 00:00 UT   15 53 32.7   -17 06 31     1.960    2.515  111.4   22.1   103   14.4 
2026-08-02 00:00 UT   15 53 52.3   -17 10 23     1.972    2.515  110.6   22.2   103   14.4 
2026-08-03 00:00 UT   15 54 13.5   -17 14 19     1.983    2.514  109.7   22.3   103   14.5 
2026-08-04 00:00 UT   15 54 36.1   -17 18 17     1.995    2.513  108.9   22.5   103   14.5 
2026-08-05 00:00 UT   15 55 00.3   -17 22 18     2.006    2.513  108.0   22.6   103   14.5 
2026-08-06 00:00 UT   15 55 26.1   -17 26 22     2.018    2.512  107.2   22.7   103   14.5 
2026-08-07 00:00 UT   15 55 53.3   -17 30 29     2.030    2.511  106.3   22.8   103   14.5 
2026-08-08 00:00 UT   15 56 22.0   -17 34 38     2.041    2.510  105.5   22.9   103   14.5 
2026-08-09 00:00 UT   15 56 52.1   -17 38 51     2.053    2.510  104.7   23.0   102   14.6 
2026-08-10 00:00 UT   15 57 23.7   -17 43 05     2.065    2.509  103.9   23.1   102   14.6 
2026-08-11 00:00 UT   15 57 56.8   -17 47 22     2.077    2.508  103.0   23.2   102   14.6 
2026-08-12 00:00 UT   15 58 31.3   -17 51 41     2.089    2.507  102.2   23.3   102   14.6 
2026-08-13 00:00 UT   15 59 07.2   -17 56 02     2.101    2.507  101.4   23.3   102   14.6 


    Terminology:
            
    delta:  distance between minor planet and earth in AU
    radius: distance between minor planet and sun in AU
    magn:   magnitude (brightness) estimate    
    ra:     right ascension in hours (24h = 360deg)
    dec:    declination in degrees
    elong:  elongation in degrees (angle sun-earth-minor planet)    
    phase:  phase angle in degrees (angle sun-minor planet-earth)        
    AU:     Astronomical Unit (mean distance between earth and sun: 149597870.7 km
    

Orbital elements provided by the MPC (Minor Planet Center).
Calculations by a modified version of AAPlus, a C# implementation of the AA+ project by PJ Naughter from the algorithms presented in the book "Astronomical Algorithms" by Jean Meeus.
NGC2000 dso catalog and star labels from VizieR as provided by the Strasbourg astronomical Data Center.
Tycho2 catalog from the ESO archive.